Overview Statistics Trail Chart Weather Telemetry Raw packets
 

This is the latest recevied weather packets stored in our database for station/object 4S6DRJ-13. If no packets are shown the sender has not sent any weather packets the latest 10 day(s).

<< 278 279 280 281 282 283 284 >>
Time Temp. Humidity Pressure Rain* Wind** Luminosity Snow
1788060687 29.44° C 77% 1010.9 hPa 0 mm 2.24 m/s, 312° 825 W/m² -
1788060626 29.44° C 77% 1010.8 hPa 0 mm 2.68 m/s, 229° 295 W/m² -
1788060566 29.44° C 78% 1010.8 hPa 0 mm 0.45 m/s, 190° 799 W/m² -
1788060504 29.44° C 78% 1011 hPa 0 mm 0.89 m/s, 211° 388 W/m² -
1788060443 29.44° C 78% 1010.8 hPa 0 mm 1.34 m/s, 124° 828 W/m² -
1788060382 29.44° C 78% 1010.9 hPa 0 mm 1.79 m/s, 193° 806 W/m² -
1788060321 29.44° C 78% 1010.9 hPa 0 mm 0.89 m/s, 271° 318 W/m² -
1788060260 29.44° C 77% 1010.9 hPa 0 mm 2.68 m/s, 225° 250 W/m² -
1788060199 29.44° C 77% 1011 hPa 0 mm 1.79 m/s, 350° 265 W/m² -
1788060139 29.44° C 78% 1010.8 hPa 0 mm 1.79 m/s, 296° 339 W/m² -
1788060077 29.44° C 77% 1010.8 hPa 0 mm 2.68 m/s, 273° 650 W/m² -
1788060016 29.44° C 78% 1011 hPa 0 mm 2.24 m/s, 254° 357 W/m² -
1788059955 29.44° C 78% 1011 hPa 0 mm 0.45 m/s, 224° 292 W/m² -
1788059895 29.44° C 78% 1010.9 hPa 0 mm 0.45 m/s, 225° 266 W/m² -
1788059834 29.44° C 78% 1010.8 hPa 0 mm 3.13 m/s, 177° 336 W/m² -
1788059772 29.44° C 79% 1010.8 hPa 0 mm 0.45 m/s, 335° 409 W/m² -
1788059711 29.44° C 79% 1011 hPa 0 mm 0.45 m/s, 320° 594 W/m² -
1788059651 29.44° C 79% 1010.9 hPa 0 mm 0.89 m/s, 218° 556 W/m² -
1788059589 29.44° C 79% 1010.8 hPa 0 mm 1.79 m/s, 193° 293 W/m² -
1788059529 29.44° C 79% 1010.9 hPa 0 mm 2.24 m/s, 342° 257 W/m² -
1788059467 29.44° C 79% 1010.9 hPa 0 mm 2.24 m/s, 260° 574 W/m² -
1788059406 29.44° C 79% 1010.8 hPa 0 mm 0.89 m/s, 242° 312 W/m² -
1788059345 29.44° C 79% 1010.8 hPa 0 mm 0.89 m/s, 223° 260 W/m² -
1788059284 29.44° C 79% 1010.8 hPa 0 mm 0.89 m/s, 187° 270 W/m² -
1788059223 29.44° C 79% 1010.6 hPa 0 mm 1.79 m/s, 228° 280 W/m² -

* Rain latest hour (hover to see other rain measurements)
** Current wind speed in m/s (hover to see current wind gust speed)